Simultaneous Nadir Overpasses (SNOs) Predictions

Prediction of SNOs between GOES-16 and NOAA-19 Satellite Orbit:

Table of predicted SNOs for the next 14.0 days since TLE Epoch: 2/15/2019
Index Date Time (GOES-16) GOES-16 Lat,Lon NOAA-19 Lat,Lon Distance(km) Time Diff (sec)
1 02/16/2019 21:48:18 -0.01, -75.19 -0.58, -77.77 293.83 80
2 02/17/2019 21:39:22 -0.02, -75.19 0.06, -74.94 29.68 80
3 02/18/2019 21:27:45 -0.01, -75.19 0.70, -72.10 353.18 80
4 02/21/2019 09:48:54 0.01, -75.22 0.45, -77.11 215.67 80
5 02/22/2019 09:34:39 0.01, -75.23 -0.23, -74.28 108.42 80
6 02/23/2019 09:23:02 0.01, -75.24 -0.86, -71.45 432.62 80
7 02/24/2019 21:58:32 -0.01, -75.24 -0.98, -79.30 464.64 80
8 02/25/2019 21:46:57 -0.01, -75.25 -0.28, -76.48 139.90 80
9 02/26/2019 21:32:40 -0.01, -75.27 0.37, -73.65 185.00 80
10 03/01/2019 09:56:31 0.00, -75.32 0.78, -78.66 381.67 80




NCC Satellite Simultaneous Nadir Overpasses (SNOs) Prediction Service
